Home   Weather   Burgdorf   Past weeks

Flag for Germany Past Weather in Burgdorf, Lower Saxony, Germany — Yesterday and Last 2 Weeks

Now
81 °F

Passing clouds.


Feels Like: 80 °F
Forecast: 55 / 72 °F
Wind: 7 mph from Southwest

Location: Celle Airport

Current Time: Aug 31, 2016 at 6:08:16 PM

Latest Report: Aug 31, 2016 at 5:20 PM


Visibility: N/A

Pressure: 30.09 "Hg

Humidity: 32%

Dew Point: 48 °F

Location of BurgdorfLocation

Past Weather in Burgdorf — Graph

°F

Burgdorf Temperature Yesterday

Maximum temperature yesterday: 73 °F (at 5:20 PM)
Minimum temperature yesterday: 46 °F (at 5:20 AM)
Average temperature yesterday: 60 °F

High & Low Weather Summary for the Past Weeks

 TemperatureHumidityPressure
High93 °F (Aug 26, 2:20 PM)100% (Aug 18, 5:20 AM)30.33 "Hg (Aug 18, 5:20 AM)
Low45 °F (Aug 18, 5:20 AM)23% (Aug 25, 5:20 PM)29.80 "Hg (Aug 18, 3:20 PM)
Average67 °F69%30.06 "Hg
* Reported Aug 16 4:20 PM — Aug 31 4:20 PM, Burgdorf, Weather by CustomWeather, © 2016

Note: Actual official high and low records may vary slightly from our data, if they occured in-between our weather recording intervals... More about our weather records

Advertising

Burgdorf Weather History for the Previous 24 Hours

Scroll right to see more
 ConditionsComfort  
Time TempWeatherWind HumidityBarometerVisibility
4:20 PM
Wed, Aug 31
81 °FPassing clouds.9 mph26%30.09 "HgN/A
3:20 PM79 °FPassing clouds.9 mph32%30.12 "HgN/A
2:20 PM77 °FScattered clouds.6 mph34%30.12 "HgN/A
1:20 PM77 °FPassing clouds.12 mph34%30.15 "HgN/A
12:20 PM73 °FPassing clouds.7 mph38%30.18 "HgN/A
11:20 AM72 °FPassing clouds.7 mph44%30.18 "HgN/A
10:20 AM66 °FPassing clouds.7 mph52%30.18 "HgN/A
9:20 AM61 °FPassing clouds.6 mph68%30.21 "HgN/A
8:20 AM55 °FPassing clouds.3 mph77%30.21 "HgN/A
7:20 AM52 °FPassing clouds.3 mph88%30.21 "HgN/A
6:20 AM50 °FFog.3 mph94%30.21 "HgN/A
5:20 AM52 °FFog.1 mph88%30.21 "HgN/A
4:20 AM52 °FCool.3 mph88%30.24 "HgN/A
1:20 AM54 °FFog.No wind88%30.24 "HgN/A
12:20 AM54 °FPassing clouds.No wind88%30.27 "HgN/A
11:20 PM
Tue, Aug 30
57 °FPassing clouds.No wind77%30.27 "HgN/A
10:20 PM59 °FPassing clouds.No wind77%30.27 "HgN/A
9:20 PM63 °FMild.No wind64%30.27 "HgN/A
8:20 PM66 °FPassing clouds.3 mph56%30.27 "HgN/A
7:20 PM72 °FPassing clouds.3 mph44%30.27 "HgN/A
6:20 PM73 °FPassing clouds.7 mph41%30.27 "HgN/A
Weather by CustomWeather, © 2016

See weather overviewHow to use our weather pages